Tracking 18984 objects as of 24-Feb-2018
HD Live streaming from Space Station
objects crossing your sky now

AMSAT OSCAR 40

Track AMSAT OSCAR 40 now!
AMSAT OSCAR 40 is classified as:


NORAD ID: 26609
Int'l Code: 2000-072B
Perigee: 1,121.2 km
Apogee: 58,714.4 km
Inclination: 6.3 °
Period: 1,146.6 minutes
Semi major axis: 36288 km
RCS: 1.8057 m2 (large)
Launch date: November 16, 2000
Source: Germany (GER)
Launch site: FRENCH GUIANA (FRGUI)
Uplink (MHz):
Downlink (MHz):
Beacon (MHz): 2401.323
Mode: 400bps PSK
Call sign:
Status: Inactive

aabbcc
Your satellite tracking list
Your tracking list is empty




NASA's NSSDC Master Catalog

Two Line Element Set (TLE):
1 26609U 00072B   18053.85196705 -.00000161  00000-0  00000+0 0  9998
2 26609   6.3444 174.2381 7935397 215.1776  48.6494  1.25586734 79499
Source of the keplerian elements: AFSPC